This is the latest recevied weather packets stored in our database for station/object CA3PBK-13. If no packets are shown the sender has not sent any weather packets the latest 1 day(s).
| Time | Temp. | Humidity | Pressure | Rain* | Wind** | Luminosity | Snow |
|---|---|---|---|---|---|---|---|
| 1778027468 | 18.33° C | 99% | 927.2 hPa | 0 mm | 0 m/s | - | - |
| 1778027349 | 18.33° C | 99% | 927.1 hPa | 0 mm | 0 m/s | - | - |
| 1778027229 | 18.33° C | 99% | 927.1 hPa | 0 mm | 0 m/s | - | - |
| 1778027110 | 18.89° C | 99% | 927.1 hPa | 0 mm | 0 m/s | - | - |
| 1778026988 | 18.33° C | 99% | 927.1 hPa | 0 mm | 0 m/s | - | - |
| 1778026748 | 18.33° C | 99% | 926.8 hPa | 0 mm | 0 m/s | - | - |
| 1778026628 | 17.78° C | 99% | 926.7 hPa | 0 mm | 0 m/s | - | - |
| 1778026510 | 17.78° C | 99% | 926.8 hPa | 0 mm | 0 m/s | - | - |
| 1778026388 | 17.78° C | 99% | 926.7 hPa | 0 mm | 0 m/s | - | - |
| 1778026268 | 17.78° C | 99% | 926.7 hPa | 0 mm | 0.45 m/s, 135° | - | - |
| 1778026148 | 17.78° C | 99% | 926.8 hPa | 0 mm | 0 m/s | - | - |
| 1778026028 | 18.33° C | 99% | 926.8 hPa | 0 mm | 0 m/s | - | - |
| 1778025910 | 18.33° C | 99% | 926.9 hPa | 0 mm | 0 m/s | - | - |
| 1778025789 | 18.89° C | 99% | 926.9 hPa | 0 mm | 0 m/s | - | - |
| 1778025668 | 18.89° C | 99% | 926.9 hPa | 0 mm | 0 m/s | - | - |
| 1778025548 | 18.89° C | 99% | 926.9 hPa | 0 mm | 0 m/s | - | - |
| 1778025428 | 18.89° C | 99% | 926.8 hPa | 0 mm | 0 m/s | - | - |
| 1778025310 | 18.89° C | 99% | 926.8 hPa | 0 mm | 0 m/s | - | - |
| 1778025188 | 18.89° C | 99% | 926.8 hPa | 0 mm | 0 m/s | - | - |
| 1778025068 | 19.44° C | 99% | 926.8 hPa | 0 mm | 0 m/s | - | - |
| 1778024948 | 19.44° C | 99% | 926.7 hPa | 0 mm | 0 m/s | - | - |
| 1778024828 | 18.89° C | 99% | 926.7 hPa | 0 mm | 0 m/s | - | - |
| 1778024710 | 18.89° C | 99% | 926.7 hPa | 0 mm | 0 m/s | - | - |
| 1778024588 | 18.89° C | 99% | 926.7 hPa | 0 mm | 0 m/s | - | - |
| 1778024469 | 18.89° C | 99% | 926.7 hPa | 0 mm | 0 m/s | - | - |
* Rain latest hour (hover to see other rain measurements)
** Current wind speed in m/s (hover to see current wind gust speed)